Home   Weather   Schwyz   Past weeks

Flag for Switzerland Past Weather in Schwyz, Schwyz, Switzerland — Yesterday and Last 2 Weeks

Now
50 °F

Cool.


Feels Like: 50 °F
Forecast: 53 / 69 °F
Wind: 2 mph from Southeast

Location: Altdorf

Current Time: Sep 26, 2016 at 7:32:44 AM

Latest Report: Sep 26, 2016 at 6:00 AM


Visibility: N/A

Pressure: 30.19 "Hg (28.37 "Hg at 515m altitude)

Humidity: 97%

Dew Point: 49 °F

Location of SchwyzLocation

Past Weather in Schwyz — Graph

°F

Schwyz Temperature Yesterday

Maximum temperature yesterday: 70 °F (at 3:00 PM)
Minimum temperature yesterday: 46 °F (at 6:00 AM)
Average temperature yesterday: 58 °F

High & Low Weather Summary for the Past Weeks

 TemperatureHumidityPressure
High80 °F (Sep 12, 4:00 PM)100% (Sep 24, 7:00 AM)30.32 "Hg (Sep 24, 7:00 AM)
Low46 °F (Sep 25, 6:00 AM)30% (Sep 15, 12:00 AM)29.73 "Hg (Sep 15, 5:00 AM)
Average61 °F79%30.05 "Hg
* Reported Sep 11 6:00 AM — Sep 26 6:00 AM, Schwyz, Weather by CustomWeather, © 2016

Note: Actual official high and low records may vary slightly from our data, if they occured in-between our weather recording intervals... More about our weather records

Advertising

Schwyz Weather History for the Previous 24 Hours

Scroll right to see more
 ConditionsComfort  
Time TempWeatherWind HumidityBarometerVisibility
6:00 AM
Mon, Sep 26
50 °FCool.2 mph97%30.19 "HgN/A
5:00 AM54 °FPassing clouds.1 mph91%30.18 "Hg16 mi
4:00 AM54 °FCool.3 mph92%30.19 "HgN/A
3:00 AM54 °FCool.2 mph91%30.20 "HgN/A
2:00 AM53 °FPassing clouds.3 mph94%30.20 "Hg16 mi
1:00 AM55 °FCool.No wind91%30.19 "HgN/A
12:00 AM56 °FCool.1 mph89%30.18 "HgN/A
11:00 PM
Sun, Sep 25
57 °FPassing clouds.3 mph89%30.17 "Hg12 mi
10:00 PM61 °FCool.2 mph83%30.15 "HgN/A
9:00 PM59 °FCool.2 mph87%30.16 "HgN/A
8:00 PM63 °FOvercast.6 mph76%30.13 "Hg12 mi
7:00 PM64 °FMild.3 mph76%30.11 "HgN/A
6:00 PM69 °FMild.1 mph62%30.08 "HgN/A
5:00 PM69 °FScattered clouds.3 mph58%30.06 "Hg16 mi
4:00 PM69 °FMild.5 mph55%30.06 "HgN/A
3:00 PM70 °FMild.3 mph56%30.06 "HgN/A
2:00 PM67 °FPassing clouds.3 mph60%30.09 "Hg16 mi
1:00 PM65 °FMild.3 mph57%30.11 "HgN/A
12:00 PM63 °FMild.3 mph60%30.14 "HgN/A
11:00 AM60 °FSunny.2 mph67%30.17 "Hg22 mi
10:00 AM58 °FCool.2 mph72%30.19 "HgN/A
9:00 AM53 °FCool.6 mph85%30.20 "HgN/A
8:00 AM48 °FSunny.2 mph93%30.22 "Hg22 mi
7:00 AM46 °FCool.3 mph96%30.22 "HgN/A
Weather by CustomWeather, © 2016

See weather overviewHow to use our weather pages